Location: Estes Par
(40.3770°N, 105.5210°W)
Time: 20:49:31
(UTC-06:00)

Envisat - Pass Details

Date: 07 October 2017
Orbit: 764 x 766 km, 98.2° (Epoch: 21 October)

Event Time Altitude Azimuth Distance (km) Brightness Sun altitude
Exits shadow 19:18:23 11° 80° (E) 2,218 4.7 -9.3°
Maximum altitude 19:20:00 13° 60° (ENE) 2,110 4.8 -9.6°
Drops below altitude 10° 19:22:10 10° 35° (NE) 2,304 5.2 -10.0°
Sets 19:25:47 0° 8° (N) 3,236 6.2 -10.7°
